MST,Max TemperatureF,Mean TemperatureF,Min TemperatureF,Max Dew PointF,MeanDew PointF,Min DewpointF,Max Humidity, Mean Humidity, Min Humidity, Max Sea Level PressureIn, Mean Sea Level PressureIn, Min Sea Level PressureIn, Max VisibilityMiles, Mean VisibilityMiles, Min VisibilityMiles, Max Wind SpeedMPH, Mean Wind SpeedMPH, Max Gust SpeedMPH,PrecipitationIn, CloudCover, Events, WindDirDegrees
2013-11-1,51,38,24,33,26,21,81,56,30,30.19,30.12,29.94,10,10,10,35,13,42,T,4,Rain,301
2013-11-2,55,39,22,32,26,19,88,65,41,30.17,29.88,29.59,10,10,10,17,3,19,0.00,0,,293
2013-11-3,49,39,29,34,28,18,92,65,38,29.94,29.75,29.52,10,10,6,28,10,36,0.06,6,Snow,284
2013-11-4,40,30,20,27,23,18,92,72,52,30.15,30.06,29.98,10,10,10,13,4,15,0.00,6,,318
2013-11-5,40,29,17,25,17,13,92,63,33,30.24,30.15,30.06,10,10,10,15,5,17,0.00,2,,183
2013-11-6,47,34,20,28,23,18,92,65,38,30.38,30.24,30.12,10,10,10,31,8,39,0.00,6,,299
2013-11-7,53,39,24,30,26,21,88,60,32,30.38,30.12,29.72,10,10,10,20,6,25,0.00,2,,166
2013-11-8,54,43,31,33,26,18,82,54,26,30.05,29.85,29.60,10,10,10,46,16,59,T,1,Rain,298
2013-11-9,47,36,25,27,24,20,81,59,37,30.28,30.22,30.08,10,10,10,10,4,13,0.00,5,,234
2013-11-10,51,38,24,33,27,20,92,67,42,30.30,30.20,30.12,10,10,10,13,5,16,0.00,2,,308
2013-11-11,32,30,27,30,27,25,100,93,85,30.64,30.48,30.25,10,5,0,10,5,13,0.01,8,Fog-Snow,14
2013-11-12,55,36,17,40,26,14,100,77,54,30.61,30.44,30.22,10,6,0,7,3,8,0.00,2,Fog,165
2013-11-13,59,47,34,36,32,26,82,60,38,30.20,30.13,30.04,10,10,10,30,8,39,T,4,,282
2013-11-14,50,38,25,27,23,20,85,60,34,30.13,29.97,29.75,10,10,10,10,4,13,0.00,0,,125
2013-11-15,48,34,19,28,22,17,91,65,39,29.73,29.58,29.41,10,10,10,15,4,17,0.00,0,,300
2013-11-16,48,35,22,30,26,20,89,64,38,29.49,29.38,29.26,10,8,1,28,7,36,0.02,5,Snow,309
2013-11-17,45,31,17,29,18,12,92,60,27,30.09,29.85,29.45,10,10,3,28,9,34,T,2,Snow,278
2013-11-18,53,35,17,29,22,14,77,58,38,30.07,29.98,29.79,10,10,10,13,5,13,0.00,0,,310
2013-11-19,59,45,30,30,27,24,75,53,31,29.74,29.66,29.58,10,10,10,17,4,21,0.00,0,,244
2013-11-20,39,24,9,24,12,4,88,74,59,30.53,30.12,29.68,10,5,1,32,11,38,0.08,7,Snow,325
2013-11-21,18,8,-3,8,2,-7,95,78,61,30.72,30.66,30.53,10,10,10,10,3,12,0.00,3,,239
2013-11-22,35,16,-3,14,3,-8,86,59,32,30.81,30.73,30.61,10,10,10,15,4,18,0.00,0,,221
2013-11-23,42,26,9,20,11,3,80,59,38,30.73,30.56,30.31,10,10,10,6,1,7,0.00,0,,313
2013-11-24,54,32,10,24,17,7,88,56,24,30.25,30.17,30.06,10,10,10,17,4,23,0.00,3,,274
2013-11-25,40,30,20,23,20,16,84,66,48,30.45,30.36,30.16,10,10,10,17,6,22,0.00,3,,295
2013-11-26,44,32,20,26,21,17,88,69,49,30.51,30.37,30.17,10,10,10,7,2,8,0.00,4,,319
2013-11-27,52,36,20,28,21,16,84,59,33,30.28,30.16,30.06,10,10,10,16,5,21,0.00,0,,314
2013-11-28,41,28,15,25,19,12,92,72,51,30.29,30.20,30.10,10,10,10,6,1,7,0.00,0,,345
2013-11-29,59,40,20,29,21,16,88,55,21,30.18,30.12,30.06,10,10,10,10,3,12,0.00,0,,181
2013-11-30,52,39,25,28,24,19,81,58,35,30.22,30.16,30.09,10,10,10,13,3,14,0.00,3,,227